Theta_e
285 285 285 285 285 285 284 284 284 284 283 283 282 282 282 282 281 281 281 281 281 281 281 281 281 280 280 280 280 280 280 280 280 280 280 280 280 280 280 280 280 280 280 280 280 280 280 280 280 280 281 280 279 279 279 279 278 278 278 279 278 278 278 277 277 277 277 277 278
284 284 284 284 284 284 284 284 284 284 283 283 283 282 281 282 281 281 281 280 281 281 281 281 280 280 280 280 280 280 280 279 280 280 280 280 279 279 279 279 279 279 279 279 280 279 279 279 279 280 280 280 279 278 278 278 278 278 278 278 278 278 278 277 277 277 277 277 277
284 283 283 283 283 283 283 283 283 282 282 282 282 282 281 281 281 281 281 280 280 280 280 281 280 280 280 280 280 279 279 279 279 279 279 279 279 279 279 279 279 279 279 279 279 279 279 279 279 280 280 279 278 277 278 278 278 278 277 277 278 278 278 278 277 277 277 277 277
283 283 283 283 282 282 282 283 282 282 281 282 281 281 281 281 281 281 281 280 280 280 280 280 280 279 279 279 279 279 279 279 279 279 278 278 279 279 279 278 279 278 278 279 279 279 279 278 279 279 279 278 277 277 277 278 277 278 278 277 278 278 278 278 278 278 278 278 277
283 283 283 283 282 282 282 282 282 281 281 282 282 281 281 281 281 281 280 280 280 281 280 280 279 279 279 279 279 279 279 279 279 279 278 278 278 278 278 278 278 278 278 278 278 278 279 278 279 279 278 278 278 277 277 277 277 277 278 278 278 278 278 278 278 278 278 277 277
283 283 283 283 282 282 282 282 281 281 281 281 281 281 281 281 281 281 281 280 280 280 280 279 279 279 279 279 278 278 278 278 278 278 278 277 278 278 278 278 278 277 277 278 278 278 278 278 278 278 278 278 277 277 277 277 277 277 277 277 278 278 278 277 278 278 277 276 276
283 283 282 282 282 282 282 281 281 281 281 281 280 280 280 280 280 280 279 280 280 279 279 279 279 279 278 278 278 278 278 278 278 278 278 277 277 277 277 277 277 277 277 277 277 278 277 277 278 278 278 278 278 277 276 276 276 276 276 276 277 277 277 276 277 277 276 275 275
283 282 282 282 282 282 282 281 281 281 281 281 280 280 279 279 279 279 279 279 279 279 279 279 278 278 278 278 277 277 277 277 277 277 277 277 277 277 277 277 277 277 276 276 277 277 277 277 278 277 277 278 278 277 276 275 275 275 275 275 276 276 276 275 275 275 275 274 274
282 282 282 282 282 282 282 281 281 281 281 280 280 280 280 279 279 279 279 279 279 279 278 278 278 278 278 278 278 277 277 277 277 277 277 277 277 277 276 276 276 276 276 276 276 276 277 277 277 277 277 278 277 276 275 275 274 274 274 275 275 275 275 275 275 275 274 274 274
282 282 282 282 282 281 281 281 281 281 280 280 280 280 280 280 279 279 279 279 278 278 278 278 278 278 278 278 278 277 277 277 277 277 276 276 276 276 276 275 276 275 275 275 276 276 276 277 276 276 275 276 275 274 274 274 274 274 274 275 275 274 274 274 274 274 274 274 273
281 281 281 281 281 281 281 281 281 280 280 280 279 279 279 280 279 279 279 279 278 278 278 279 278 278 278 278 277 277 277 277 276 276 276 275 276 275 275 275 275 275 275 275 275 275 275 276 275 274 274 275 274 274 274 274 273 273 273 274 274 273 273 273 273 273 273 273 273
281 281 281 281 280 280 280 280 280 280 280 279 279 279 279 279 279 279 279 279 279 279 279 279 278 278 277 277 277 277 276 276 276 276 275 275 275 275 275 274 274 274 274 274 274 275 275 274 274 274 274 274 274 273 273 273 273 273 273 273 273 273 272 272 272 273 273 272 272
281 281 280 280 280 280 280 279 279 279 279 279 278 278 278 279 279 279 279 279 279 279 278 278 278 278 277 276 276 276 276 275 275 275 275 275 274 274 274 274 274 274 274 274 274 274 274 273 273 273 273 273 273 273 273 273 272 272 272 272 272 272 272 272 272 272 272 272 272
280 280 280 279 279 279 279 279 279 279 279 278 278 278 278 279 279 279 279 278 278 278 278 278 277 277 277 276 276 276 275 275 275 275 274 274 274 274 274 273 273 273 273 273 273 273 273 273 273 273 272 272 272 272 273 272 272 272 272 272 271 271 271 271 271 271 271 271 272
280 279 279 279 279 279 279 278 279 279 279 278 278 278 278 278 278 278 278 277 277 277 277 276 276 276 277 276 276 275 275 275 274 274 274 274 273 273 273 273 273 273 273 273 273 273 273 273 273 272 272 272 272 272 272 272 272 272 272 271 271 271 271 271 271 271 271 271 270
279 279 279 278 278 278 278 278 279 279 279 278 278 278 278 277 278 278 277 277 276 276 276 275 275 275 275 276 276 275 274 274 274 274 273 273 273 273 273 272 272 272 272 272 272 272 272 273 272 272 272 272 272 272 272 272 271 271 271 271 271 271 271 271 271 271 271 271 271
279 279 279 278 278 278 278 278 279 279 279 278 278 277 277 276 277 277 277 276 276 275 275 275 275 274 274 275 275 274 274 273 273 273 273 273 272 272 272 272 272 272 272 272 272 272 272 272 272 272 271 271 271 271 271 271 271 271 271 271 271 271 271 272 272 271 271 271 271
279 279 279 279 279 279 278 278 278 278 278 277 276 276 276 276 276 276 276 276 275 275 275 274 274 274 274 273 274 274 274 273 273 273 272 272 272 272 271 271 272 272 271 271 271 271 271 271 271 271 271 271 271 271 272 272 271 271 271 271 271 271 271 272 271 271 271 271 271
279 279 279 279 279 279 278 278 277 277 276 276 275 275 275 275 275 275 275 275 275 275 274 274 274 274 273 273 273 274 274 273 272 272 272 272 271 271 271 271 271 271 271 271 271 271 271 271 271 271 271 271 271 271 271 271 271 271 271 271 271 271 271 271 271 271 271 271 271
279 279 280 279 279 278 277 277 276 276 276 275 275 275 274 274 274 274 274 274 274 274 274 273 273 273 273 273 273 273 273 273 272 272 271 271 271 271 271 270 270 270 270 271 271 271 271 271 271 271 271 271 271 271 271 271 271 271 271 271 271 271 271 271 271 271 271 271 270
280 280 279 279 278 277 277 276 276 275 275 275 274 274 274 274 274 274 274 274 274 274 273 273 273 272 272 272 272 272 272 273 272 271 271 271 271 271 271 271 270 270 270 270 270 270 271 271 271 271 271 271 271 271 271 271 271 271 271 271 271 271 271 271 271 271 271 270 270
280 279 279 278 277 277 276 276 276 275 275 274 274 274 273 273 273 273 273 273 273 273 273 272 272 272 272 272 272 271 271 272 271 271 271 271 271 271 271 271 270 270 270 270 270 270 271 271 271 271 272 272 272 273 273 272 271 271 271 271 271 271 271 271 271 271 271 270 270
279 279 278 278 277 276 276 275 275 275 274 273 273 273 272 272 272 272 272 272 273 273 272 272 272 272 272 272 271 271 271 270 270 270 271 270 270 270 270 270 269 269 269 270 270 270 270 271 271 271 272 273 273 273 272 272 272 271 270 270 270 270 270 270 270 270 270 270 270
278 278 278 278 277 276 275 275 274 274 273 273 272 271 271 271 271 271 271 271 271 271 271 271 272 272 272 271 271 271 270 270 270 270 270 270 270 270 269 269 269 269 270 270 271 272 271 271 271 271 271 272 272 271 271 271 271 270 270 270 270 270 270 270 270 270 270 270 270
278 277 277 277 276 275 274 274 273 273 272 272 271 270 269 268 268 268 268 268 268 268 269 269 270 270 270 270 270 269 269 270 270 270 269 269 269 269 269 269 269 270 270 272 274 276 276 275 273 272 271 271 270 270 269 270 270 270 270 270 270 270 270 270 270 270 270 270 270
278 277 277 276 275 274 273 273 272 272 271 270 270 268 267 266 266 266 266 266 266 267 267 268 268 269 269 269 269 268 268 269 270 270 269 269 269 269 269 269 270 270 271 273 276 277 278 278 277 276 274 273 272 271 271 271 270 270 270 271 270 270 270 270 270 270 270 270 270
277 276 275 275 274 273 272 271 271 270 269 269 268 267 266 265 265 265 265 265 265 265 266 267 267 269 270 269 268 267 268 268 269 270 270 269 269 269 269 269 269 270 271 274 276 277 278 279 279 279 277 275 274 274 273 271 270 269 269 270 270 270 270 270 270 270 270 269 269
276 275 274 273 273 272 271 270 270 269 268 267 266 266 265 264 264 264 264 265 264 265 265 266 268 269 269 269 268 268 268 268 269 269 270 270 269 269 269 269 269 270 272 276 277 278 278 279 279 279 279 276 275 275 274 272 270 269 269 269 270 270 270 271 271 270 270 269 268
276 274 274 273 272 271 270 270 269 268 267 266 265 265 264 264 264 264 264 264 264 265 266 267 268 268 269 269 268 268 268 268 269 269 269 269 269 268 268 268 268 270 274 277 277 278 278 279 279 280 280 279 277 274 272 270 270 269 269 270 270 270 270 270 270 269 269 268 268
275 274 273 272 271 271 270 269 268 267 266 266 265 264 264 264 264 263 264 264 265 266 267 268 268 268 268 269 269 269 269 269 269 269 268 268 268 268 268 269 268 270 273 277 278 278 278 278 279 279 280 280 278 276 275 274 272 271 270 270 270 270 270 270 269 269 269 268 268
274 274 273 272 271 270 269 268 267 266 266 266 265 264 264 264 264 264 265 265 266 267 268 268 268 268 268 269 269 269 269 269 269 269 268 267 268 268 268 268 268 269 272 276 277 278 278 278 279 279 279 280 278 276 274 272 272 272 271 270 270 270 270 269 269 269 269 268 268
274 273 272 271 270 269 268 267 266 266 265 264 264 264 264 264 265 265 266 266 266 267 267 268 268 268 268 269 269 269 269 269 268 268 267 267 267 267 267 267 267 268 271 275 276 277 278 278 278 279 279 279 278 276 274 272 272 272 271 269 269 269 270 270 270 269 269 268 268
274 273 272 271 270 269 267 266 266 265 265 264 264 264 264 264 265 266 266 267 266 267 267 268 268 268 268 268 268 269 268 268 267 267 267 266 266 266 266 266 266 268 272 275 276 277 277 278 278 279 279 279 278 276 273 272 272 271 271 270 270 270 270 269 269 269 269 268 268
274 273 272 271 270 269 267 266 266 265 264 264 263 263 264 264 264 265 266 267 267 267 267 268 268 268 268 268 268 268 267 266 266 266 265 265 265 265 265 265 264 268 273 275 276 277 277 278 278 279 279 278 277 274 272 272 271 271 270 270 270 270 270 269 269 269 268 268 268
274 273 272 271 270 269 267 266 265 265 264 264 263 263 263 264 264 265 266 267 268 268 268 268 268 268 268 267 267 267 266 264 264 264 264 264 264 264 264 264 264 268 272 274 276 277 277 278 278 279 278 278 276 274 272 272 270 269 269 269 269 269 269 268 268 268 268 268 268
274 273 272 271 270 269 268 266 265 265 264 264 264 264 264 264 265 266 267 268 268 268 267 268 268 267 267 267 266 266 265 263 262 261 261 262 263 263 263 263 264 267 271 274 275 276 277 278 278 278 278 277 274 272 271 270 269 268 268 268 268 268 268 268 268 268 268 268 268
274 274 273 271 270 269 268 267 266 265 265 265 265 264 264 265 265 266 267 268 268 267 267 267 267 267 266 266 265 265 264 263 262 261 260 260 261 262 262 263 263 265 269 273 275 276 277 277 278 278 277 275 272 270 269 269 268 267 267 267 268 268 268 268 268 268 268 268 268
274 274 273 272 271 269 268 267 267 266 266 266 265 265 265 265 266 266 267 268 268 267 267 267 267 267 266 266 265 264 263 263 263 261 260 260 260 261 261 262 262 264 267 271 273 275 276 277 277 278 277 274 272 270 269 268 267 267 267 267 268 268 268 269 269 268 268 268 270
274 274 273 272 271 270 269 268 268 267 267 266 266 266 266 266 266 267 268 268 268 267 267 267 266 266 266 265 265 264 263 263 263 262 260 259 259 260 261 261 261 263 265 270 272 274 275 276 277 277 277 275 272 270 269 268 267 266 267 267 267 268 268 268 268 268 268 268 271
274 273 273 272 272 271 270 269 268 268 268 267 267 266 266 267 267 268 269 268 268 267 267 267 266 266 265 265 265 264 263 262 262 261 261 260 260 260 261 261 261 262 264 268 271 273 274 275 276 277 277 275 273 271 270 268 267 266 266 267 267 267 267 268 268 268 268 268 270
274 273 273 272 272 271 270 270 269 269 268 268 267 267 267 267 268 268 268 267 267 267 267 266 266 265 265 264 264 264 262 262 262 262 261 260 260 260 261 261 260 261 262 266 269 272 273 275 276 276 276 275 273 272 270 269 267 266 266 266 267 267 267 267 267 267 267 267 268
Wind_Speed
6 6 5 5 5 5 5 4 4 4 4 4 4 4 4 4 4 4 4 4 4 4 3 3 3 2 2 3 4 4 4 4 5 5 6 7 7 7 7 7 7 7 6 6 5 5 4 4 3 3 2 2 2 2 2 2 2 3 3 3 3 3 3 4 3 3 3 3 3
7 7 6 6 6 5 5 4 4 4 4 4 4 4 4 4 5 4 4 4 4 3 3 3 2 3 3 3 4 4 4 5 5 6 6 7 7 7 7 6 6 6 6 5 5 4 3 3 3 3 3 3 3 3 2 2 2 3 3 3 2 2 3 3 3 3 3 3 3
7 7 6 6 6 6 5 5 5 5 5 5 5 4 4 4 4 4 4 4 4 3 3 3 2 3 3 4 4 4 4 5 5 6 6 6 6 6 6 5 6 5 5 4 4 3 3 3 3 3 3 3 3 3 3 3 2 2 3 2 2 2 2 3 2 2 2 2 2
7 7 6 7 7 7 6 5 6 6 6 5 5 5 5 4 4 4 4 4 4 3 3 3 3 3 3 4 4 4 5 5 5 6 6 5 5 5 5 5 5 4 4 4 3 3 3 3 3 3 3 4 3 3 3 3 3 2 2 1 2 2 3 2 2 2 2 2 2
7 6 6 7 7 7 6 6 7 6 6 5 5 5 5 4 4 4 4 4 4 3 3 3 3 3 4 4 5 5 5 5 6 5 5 5 5 4 4 4 4 3 3 3 3 3 3 3 3 3 3 3 3 2 2 3 3 2 1 1 2 2 2 2 2 2 1 1 1
6 6 6 7 7 7 7 6 7 7 6 5 5 5 5 4 4 4 5 4 4 4 4 4 4 4 4 5 5 5 5 5 5 4 4 4 4 4 4 4 3 3 2 2 2 3 3 3 3 3 3 3 3 2 3 3 3 3 2 2 2 2 2 2 1 1 1 2 2
7 7 7 8 8 7 7 6 6 6 6 5 6 6 6 5 5 5 5 5 5 4 3 3 4 4 4 5 5 4 4 4 4 4 4 4 4 3 3 3 3 3 2 2 2 3 3 3 3 2 2 3 3 3 3 3 3 3 3 2 2 2 2 1 1 1 1 2 2
8 8 7 8 8 8 8 7 6 6 5 5 6 7 7 7 7 7 6 5 4 3 3 2 3 4 4 5 5 4 4 4 4 3 3 4 4 3 3 3 3 3 2 2 3 3 3 3 3 2 2 2 2 2 2 3 3 3 2 2 2 2 1 1 1 1 1 2 2
7 7 7 8 8 8 7 7 7 6 6 6 6 7 7 7 7 7 6 5 4 3 3 3 4 5 5 6 5 5 4 4 4 4 4 4 4 3 3 3 3 2 2 2 3 3 3 3 3 2 2 2 2 2 2 2 3 3 2 2 2 2 2 1 1 2 2 2 2
7 7 7 7 7 7 7 7 7 7 7 7 7 7 7 7 6 6 5 4 4 3 3 3 4 5 6 6 5 5 4 4 4 4 4 4 3 3 3 3 3 3 3 3 3 3 3 3 3 2 2 2 2 2 2 2 2 2 2 1 1 2 2 2 2 2 2 1 1
8 7 7 6 7 7 7 7 7 7 7 7 7 6 6 6 6 5 5 5 5 4 4 3 5 5 6 5 5 4 4 4 4 4 3 3 3 3 3 2 3 3 3 3 3 3 3 3 2 2 1 1 2 2 2 2 2 2 1 1 1 1 1 2 1 1 1 1 1
8 7 7 6 7 7 8 7 7 6 7 7 6 6 6 5 5 5 5 5 5 5 4 4 4 5 5 4 4 4 4 4 4 3 3 3 3 2 2 2 2 2 2 2 2 2 2 2 2 1 1 1 1 1 1 1 1 1 1 1 1 1 1 1 1 1 0 0 0
8 7 7 7 7 7 8 7 6 6 6 6 6 5 5 5 5 5 5 6 5 5 4 4 4 4 4 4 4 4 4 3 3 3 3 3 2 2 2 2 2 2 2 2 2 2 2 2 2 1 1 1 1 1 1 1 1 1 1 1 1 1 1 1 1 1 1 0 1
8 8 7 7 7 7 7 7 6 6 6 6 6 5 5 5 4 4 4 5 5 5 4 4 4 4 4 4 4 4 3 3 3 3 3 2 2 2 2 2 2 2 2 2 2 2 2 1 1 1 1 1 0 0 0 1 1 1 1 1 1 1 1 2 2 1 1 1 1
8 8 7 7 7 7 7 6 6 6 6 6 5 5 5 5 4 4 5 6 5 5 4 4 4 3 3 4 4 4 3 3 3 3 3 2 2 2 2 2 2 1 1 1 1 1 1 1 1 1 1 0 0 0 0 1 1 1 1 1 2 2 2 2 2 2 1 2 2
8 8 7 7 7 7 7 6 5 5 6 6 5 5 5 4 4 4 5 5 5 5 4 4 4 3 3 3 3 3 3 3 3 3 3 2 2 2 2 2 2 1 1 1 1 1 0 0 1 1 1 1 1 1 1 1 1 1 2 2 2 2 2 3 2 2 2 2 2
8 8 7 7 8 8 7 6 6 5 6 6 6 5 5 4 4 4 4 5 5 5 5 4 4 3 3 2 2 2 2 2 2 2 2 2 2 2 2 2 1 1 1 1 0 0 0 1 0 1 1 1 1 2 2 2 2 2 2 2 3 3 3 3 3 3 3 2 3
8 8 8 8 8 8 8 7 7 6 6 7 6 5 5 5 4 4 4 4 4 5 5 4 4 3 3 2 2 2 2 2 2 2 2 2 2 2 2 2 1 1 1 0 0 1 1 1 1 1 1 2 2 2 2 2 2 3 3 3 3 3 3 3 3 3 3 3 3
8 8 8 8 8 8 8 8 8 7 7 7 6 6 5 5 5 4 4 3 4 5 5 5 4 3 3 3 2 2 2 2 2 2 2 2 2 2 2 2 1 1 1 0 1 1 1 2 2 2 2 2 2 3 3 3 3 3 3 3 3 3 3 3 3 3 3 3 3
9 9 9 8 8 8 8 7 7 7 7 6 7 7 6 6 5 5 4 3 4 4 5 5 4 3 3 3 2 2 2 1 2 2 2 2 2 2 2 1 1 1 1 1 1 2 2 2 2 2 3 3 3 3 3 3 3 3 3 3 3 3 4 4 4 4 3 3 3
10 9 9 8 7 7 7 6 6 7 7 7 7 7 7 6 5 5 4 4 4 4 5 4 4 4 3 3 3 2 2 2 2 2 2 2 2 2 1 1 1 1 1 1 2 2 2 2 3 3 3 3 4 4 4 3 3 3 3 3 3 3 4 4 4 4 4 3 3
9 8 7 7 7 7 6 6 7 7 7 7 7 7 7 6 6 5 4 4 4 4 4 4 4 4 4 3 3 3 2 2 2 2 2 2 2 1 1 1 1 1 1 2 2 2 3 3 3 3 3 3 3 3 3 2 2 2 2 3 3 3 3 3 3 3 4 4 4
8 7 6 6 7 7 7 7 7 7 7 7 7 7 7 6 5 5 4 4 3 3 3 3 3 3 4 3 3 3 3 2 2 2 2 1 1 1 1 1 1 1 2 2 3 3 3 3 3 3 3 3 3 2 2 2 2 2 2 3 3 4 4 3 3 3 4 4 4
8 7 7 6 7 7 8 7 7 7 7 7 7 7 6 6 5 4 4 4 3 3 3 3 3 3 3 3 3 3 3 3 3 2 2 1 1 1 1 1 2 2 3 3 4 4 4 3 2 2 2 2 2 2 1 1 1 2 2 3 4 4 4 4 4 4 4 4 4
8 8 8 7 8 8 8 8 8 8 7 7 7 7 6 5 5 4 4 4 3 3 3 3 2 2 3 3 3 3 3 3 3 3 2 2 1 1 2 2 2 3 3 4 7 8 7 5 4 3 2 1 1 1 1 1 2 3 3 4 4 4 4 5 5 5 5 5 5
9 8 8 8 8 8 8 8 8 8 7 7 7 7 6 5 5 4 4 4 3 3 3 3 2 2 2 2 2 2 2 2 3 3 3 3 3 3 3 3 3 3 4 6 8 9 9 9 8 6 4 2 2 2 2 2 3 3 4 4 5 5 5 5 5 5 6 6 6
9 9 8 8 9 8 8 8 7 7 7 7 8 7 6 5 4 4 4 4 3 3 2 2 2 2 2 2 2 2 2 1 2 2 3 3 4 4 4 4 3 3 4 7 9 10 10 10 9 8 6 4 3 3 3 3 3 4 4 5 5 5 6 6 7 7 6 5 5
9 9 9 9 9 8 8 7 7 7 8 8 7 7 6 5 5 5 4 4 3 3 2 1 1 1 2 2 2 3 3 2 2 2 3 3 4 4 4 4 4 4 6 9 10 10 10 10 10 9 8 5 4 4 4 4 4 4 4 4 5 5 6 6 6 6 6 5 3
10 9 10 10 9 8 8 8 8 8 8 7 7 7 6 6 6 5 5 4 4 3 3 2 2 2 2 2 3 3 3 3 3 3 3 3 4 4 4 4 4 5 8 11 11 10 10 10 10 9 9 8 5 3 3 3 3 3 4 4 4 5 5 6 5 5 4 3 3
10 10 10 10 9 9 8 8 8 8 7 7 7 7 7 7 6 6 5 5 5 4 4 3 3 3 3 3 3 3 3 3 3 3 4 4 4 4 4 4 4 5 7 11 11 10 10 10 10 10 10 9 6 4 3 3 3 3 4 4 4 5 5 5 5 5 4 3 3
10 10 10 10 9 9 8 8 7 7 7 7 8 8 7 7 7 6 6 6 5 4 4 4 4 4 4 4 4 4 4 4 4 4 4 5 5 5 4 4 4 5 7 10 11 11 10 10 10 10 10 10 7 5 3 3 4 4 4 4 5 5 6 6 5 5 5 4 4
10 10 10 10 9 9 8 7 7 8 8 8 8 8 7 7 6 6 5 5 4 4 4 4 5 5 4 4 4 4 5 5 5 5 5 5 5 4 4 4 4 5 7 11 11 11 11 11 10 10 10 10 8 5 4 4 4 4 5 5 6 6 6 6 6 6 6 5 4
10 10 10 10 9 8 8 8 8 8 8 8 8 8 7 6 5 5 5 5 5 5 5 6 6 5 5 5 5 4 5 5 6 6 6 5 5 4 4 4 4 5 8 11 11 11 11 11 11 11 11 10 7 5 4 3 3 4 5 5 6 6 7 7 7 6 6 5 4
11 11 10 10 9 9 8 8 8 8 8 8 7 7 7 6 6 5 5 5 5 5 5 5 5 5 5 5 4 4 4 4 5 5 5 4 4 4 4 4 3 6 9 11 12 12 12 11 11 11 11 10 7 5 3 4 4 4 5 6 6 6 7 7 7 6 6 5 4
12 11 11 10 10 9 9 8 8 8 8 8 7 7 7 6 6 6 6 6 5 5 5 5 4 4 4 4 4 4 4 4 4 4 4 4 3 3 4 4 4 6 10 12 12 12 12 12 11 11 10 9 6 4 4 4 4 5 6 6 6 7 7 7 6 6 6 5 5
12 12 12 11 10 10 9 9 9 9 9 9 8 8 7 7 6 6 6 6 6 5 5 5 4 4 4 4 4 4 4 4 4 4 3 3 3 4 4 4 4 7 10 12 13 13 12 12 12 11 10 8 4 3 3 4 4 5 6 6 7 7 7 7 6 6 6 6 6
13 13 12 12 11 11 10 10 10 10 10 10 9 8 8 8 6 6 6 6 6 6 6 5 5 5 6 6 5 4 4 5 4 4 4 4 4 5 5 5 5 6 9 12 12 13 13 12 12 11 9 6 4 3 3 3 3 4 5 6 6 6 6 6 6 6 6 6 6
12 13 13 12 12 11 11 11 11 11 11 11 9 8 8 7 7 6 6 6 6 7 7 6 6 6 6 6 5 5 4 5 5 5 5 6 6 6 6 6 6 6 8 11 12 13 13 12 12 11 9 6 4 3 3 3 3 4 5 5 5 5 5 5 5 5 6 6 7
12 12 12 12 12 12 12 11 12 12 12 10 8 8 7 7 7 7 7 7 6 6 7 7 6 6 6 6 6 5 5 5 6 6 6 7 7 7 7 7 6 6 8 10 12 13 13 12 12 12 10 7 4 3 3 3 3 4 4 5 5 5 5 5 5 5 5 6 7
11 12 12 12 12 12 12 12 12 12 11 9 8 8 8 8 7 7 7 6 6 6 6 6 6 6 6 6 6 6 6 5 6 6 7 7 7 8 8 8 7 7 8 10 12 13 13 13 13 12 11 7 4 3 3 3 3 4 4 4 4 4 4 5 4 4 4 5 6
11 11 12 12 12 12 12 13 12 11 9 8 9 8 8 7 6 6 6 6 6 6 5 5 5 6 6 7 7 7 6 6 6 6 6 7 7 7 8 8 7 7 7 9 12 13 14 13 13 13 11 7 5 3 3 3 3 4 5 5 4 4 4 4 4 4 4 4 4
Wind_Direction
103 105 108 109 109 110 110 109 106 105 104 105 104 103 102 100 99 97 95 95 98 100 101 101 104 103 98 90 87 83 78 72 68 65 64 62 60 55 51 46 41 38 36 34 37 41 46 51 58 62 65 66 63 51 34 14 18 29 39 43 41 46 51 50 39 30 27 27 20
102 103 104 105 106 106 106 105 102 100 99 99 101 102 102 101 101 100 98 98 102 105 107 107 105 101 97 92 90 88 84 79 73 68 64 62 60 57 55 51 44 39 35 32 32 36 42 49 56 59 60 56 55 44 27 5 24 40 46 42 41 46 51 50 39 31 29 30 20
104 104 105 106 108 110 110 109 106 103 101 100 100 100 100 101 103 104 105 105 105 105 105 106 100 96 93 88 83 82 82 81 76 70 65 62 59 57 56 54 48 42 36 31 28 29 37 51 61 63 62 57 51 39 19 357 16 42 55 50 46 48 49 46 34 27 26 33 27
107 108 109 110 111 112 113 114 110 108 107 106 101 100 99 102 106 108 109 108 105 103 104 105 99 94 90 87 81 78 76 76 75 72 68 63 60 58 57 56 51 45 37 31 27 25 31 49 65 69 68 64 55 40 18 357 9 26 52 65 62 57 51 41 29 23 24 32 30
110 110 111 112 112 111 111 111 112 111 110 109 106 104 104 105 107 109 109 107 107 107 108 106 102 98 95 92 87 82 76 73 73 73 71 67 63 60 57 56 54 48 39 32 28 27 32 48 66 74 75 75 64 43 18 4 10 14 25 50 64 63 55 41 24 16 18 28 26
111 109 107 107 108 108 108 109 111 111 112 111 110 111 112 113 113 112 111 111 111 110 107 104 103 101 98 95 91 86 80 75 74 75 75 72 67 62 59 57 53 47 39 30 29 31 37 51 64 73 78 83 71 49 24 16 18 19 24 41 57 62 59 44 21 14 21 31 25
111 109 108 108 109 110 111 111 111 111 111 110 112 115 118 117 114 113 113 113 111 109 108 105 104 103 101 99 93 89 85 80 78 78 79 79 72 66 62 58 52 45 37 30 32 34 40 53 62 65 68 79 73 50 28 21 25 28 32 39 49 58 61 52 21 19 32 37 27
106 108 110 111 112 113 114 114 113 111 111 111 115 117 118 117 115 115 114 112 114 115 114 106 103 101 98 95 90 86 82 79 74 71 71 74 73 69 63 59 52 43 34 31 39 41 44 52 58 58 60 72 74 57 34 24 30 34 36 41 40 39 43 44 25 30 39 41 28
105 107 108 110 112 114 115 114 113 113 113 113 115 117 117 117 117 116 116 117 119 117 108 99 96 93 90 87 83 80 76 74 70 66 63 63 64 61 56 53 49 39 29 26 41 49 53 56 54 52 55 73 79 68 44 33 36 35 36 45 38 20 8 10 22 29 33 38 25
114 113 112 112 114 113 112 109 108 109 111 113 113 114 114 115 116 117 119 122 115 106 98 96 95 92 90 88 87 84 82 80 78 74 69 64 64 60 55 51 49 40 28 20 36 50 58 62 57 48 47 73 86 81 61 44 45 39 33 40 39 17 358 353 11 21 24 24 13
120 119 119 118 117 113 109 107 107 107 110 112 112 112 111 111 112 115 117 115 107 103 100 99 97 97 96 95 94 93 90 88 86 84 80 73 71 68 63 57 54 47 37 23 33 48 60 67 64 52 43 61 85 85 71 53 53 46 34 29 37 22 357 340 352 3 10 9 357
122 121 119 117 115 111 109 109 110 111 112 113 112 111 109 109 113 115 114 110 108 105 102 96 96 97 99 99 97 95 92 91 91 91 89 85 80 76 70 63 58 52 44 32 36 49 63 71 72 62 47 41 70 79 75 60 59 51 34 7 23 18 347 314 315 315 320 352 343
123 121 118 115 111 110 109 111 113 114 114 113 111 109 108 109 112 113 112 109 108 105 98 90 90 93 97 98 97 95 93 94 96 97 97 96 91 84 77 67 60 55 50 42 43 52 64 76 79 77 64 38 52 72 83 82 81 74 49 349 357 331 289 275 273 274 284 316 289
123 122 120 117 113 112 112 114 115 116 115 113 111 109 109 109 109 107 106 106 106 103 97 88 84 86 92 97 97 97 97 97 99 100 101 102 97 92 86 75 65 58 54 50 49 57 66 75 83 89 89 68 50 78 115 131 133 143 163 211 241 253 255 254 253 251 249 249 254
125 125 124 120 118 117 118 120 120 120 118 115 113 111 109 108 103 100 101 104 104 102 97 91 86 83 85 91 95 98 99 100 102 105 107 106 101 97 94 88 73 63 58 55 54 62 76 93 111 117 118 134 218 233 217 190 182 187 193 202 214 228 239 245 243 236 227 226 236
131 130 129 126 125 125 125 127 127 125 123 120 117 113 110 107 100 98 101 105 104 101 96 95 93 87 82 83 90 95 99 102 107 112 115 117 111 106 102 99 88 78 66 60 50 56 87 147 151 148 154 189 222 233 233 222 214 213 213 213 216 222 231 238 236 231 224 220 227
136 136 135 133 132 132 133 133 132 131 129 126 122 118 114 110 103 101 104 108 107 105 102 102 101 97 92 87 87 93 100 108 114 119 125 128 125 120 115 111 106 98 87 79 61 306 254 246 215 184 188 208 224 231 231 227 224 224 224 223 223 225 230 235 233 229 225 223 227
141 141 140 138 138 138 137 137 135 134 132 131 127 123 118 113 109 106 104 106 109 111 113 112 110 108 108 108 103 104 110 119 125 129 130 131 128 125 121 118 116 112 112 120 201 227 233 240 236 226 221 226 231 232 231 227 226 225 227 227 228 230 233 235 233 227 223 223 229
146 146 145 144 142 141 140 138 137 136 135 133 129 124 118 115 112 109 105 103 110 115 118 119 118 118 120 124 122 123 125 129 132 131 128 124 120 118 119 119 120 124 142 206 232 233 233 230 231 227 229 232 236 237 236 231 229 227 227 227 230 233 235 237 233 229 223 221 225
151 151 150 149 145 142 140 139 138 137 134 131 126 122 119 117 114 113 112 113 114 116 118 122 124 126 128 130 129 130 131 131 130 127 124 119 116 118 123 128 135 153 192 224 238 241 239 237 235 232 231 231 234 237 237 234 231 230 229 230 232 234 236 236 234 231 227 223 224
155 154 152 149 145 142 140 138 135 133 130 126 124 122 120 119 117 118 120 120 115 114 117 123 129 134 137 138 139 141 142 133 127 127 126 122 126 133 138 140 153 181 213 233 239 241 241 240 240 238 235 231 232 231 231 230 229 232 236 239 240 239 238 236 234 232 230 228 227
157 154 150 147 143 140 136 132 130 128 126 124 122 121 120 119 120 120 119 114 111 114 121 130 136 142 145 148 149 150 146 134 126 124 125 127 136 145 151 151 166 197 229 239 242 245 245 246 246 243 240 236 235 233 231 227 230 238 247 253 254 253 251 246 240 236 234 232 230
155 151 148 144 139 134 130 128 127 126 125 124 122 120 119 120 120 118 115 111 114 121 130 138 143 148 151 153 152 149 144 135 127 123 123 125 137 153 166 169 189 213 228 234 234 235 239 246 251 251 247 242 240 238 236 233 239 249 258 265 267 267 266 261 254 248 243 240 236
152 150 146 141 135 132 130 129 129 129 129 127 125 122 120 119 116 113 111 113 117 123 129 134 138 143 146 146 145 144 142 140 139 139 139 139 159 182 198 206 216 223 229 232 229 226 223 225 240 251 253 245 242 242 244 250 255 261 265 268 270 271 270 268 263 258 253 249 244
150 147 144 139 136 133 133 134 136 137 135 132 126 122 118 115 112 109 109 111 112 113 112 111 114 120 126 130 130 131 136 141 146 151 158 173 195 210 219 226 230 231 232 235 235 231 226 219 222 227 234 239 252 270 278 279 271 266 264 263 264 266 269 270 267 263 258 254 248
148 146 144 141 138 137 138 141 142 140 136 130 125 121 119 117 112 110 110 113 110 104 99 99 103 111 119 123 121 121 127 140 150 157 165 180 199 214 224 230 233 235 235 235 235 233 230 227 226 224 222 226 243 259 268 270 266 263 261 260 261 263 265 268 267 265 261 256 249
148 147 145 142 140 141 144 145 142 138 134 130 128 127 126 122 115 114 115 120 115 104 95 97 112 127 134 133 132 136 144 158 165 172 178 185 198 211 221 228 231 234 236 236 236 234 233 232 234 232 227 215 223 236 247 254 257 257 259 260 260 260 261 263 264 263 261 258 251
150 148 145 141 144 146 146 143 140 139 138 136 135 133 129 124 123 124 127 129 123 117 114 122 145 153 153 151 154 159 164 172 183 189 192 195 203 211 218 226 230 233 235 236 236 235 235 237 241 242 239 229 224 228 236 242 246 249 252 254 256 257 257 257 258 258 256 255 253
151 148 146 146 149 150 148 146 147 146 143 138 134 131 130 130 134 137 140 141 143 148 156 165 170 174 177 180 176 172 174 183 192 195 199 203 212 218 222 228 232 238 239 238 237 236 238 240 244 247 248 242 233 223 220 226 235 243 249 252 254 256 257 257 257 256 255 255 259
151 150 150 152 153 154 154 155 152 148 141 134 131 131 134 139 145 150 154 158 164 169 171 167 171 182 192 193 182 179 182 191 194 196 199 205 214 221 227 232 235 241 243 242 241 240 241 243 247 250 251 249 246 239 234 235 242 247 252 255 257 259 261 263 264 265 266 268 271
153 153 154 155 156 158 159 156 149 142 138 134 135 139 144 151 159 164 168 169 171 172 172 170 179 190 197 196 187 185 187 192 194 197 199 203 211 218 226 232 236 244 247 247 246 245 245 246 248 251 253 253 251 246 238 235 239 244 248 252 256 260 264 268 269 270 270 269 269
156 156 157 158 160 160 157 150 145 142 140 140 144 149 155 163 168 171 170 168 167 171 178 184 190 195 199 201 196 193 192 192 194 196 196 196 202 211 222 231 237 245 249 250 250 249 247 248 249 251 253 254 253 249 242 241 243 247 250 252 255 258 260 264 265 264 263 259 256
159 160 161 162 163 160 155 149 147 146 145 148 152 158 163 168 168 168 168 168 171 179 186 192 193 195 197 200 201 201 199 196 193 192 190 189 193 203 218 231 238 246 249 251 252 251 249 248 249 251 253 255 257 255 250 249 252 254 255 254 254 255 255 256 256 256 253 250 246
162 163 164 165 163 160 156 153 151 150 150 154 160 164 167 167 168 171 174 177 179 185 191 195 195 195 195 196 198 201 202 198 190 185 182 180 183 197 215 229 238 246 249 252 252 252 250 249 249 250 252 254 256 256 253 253 255 254 254 254 253 253 252 252 253 252 249 246 244
166 166 167 167 164 161 158 156 155 155 157 162 168 171 172 173 175 178 180 180 180 184 191 198 195 193 192 196 200 199 197 193 187 181 175 171 179 200 220 232 240 247 249 252 253 252 250 249 248 249 251 252 252 250 248 249 251 252 252 254 255 255 255 255 255 254 252 249 246
169 168 169 168 166 164 162 161 160 162 166 172 176 178 180 182 183 183 181 177 178 183 189 194 192 191 192 198 201 197 190 182 180 177 175 173 184 206 224 234 243 249 251 252 252 251 250 249 248 249 249 250 248 246 246 249 251 253 254 255 257 257 257 258 258 257 254 250 245
172 170 169 168 168 168 167 166 167 171 177 183 184 183 183 184 185 185 181 177 180 185 189 191 191 193 194 195 197 194 185 172 171 175 182 185 192 206 222 234 242 249 252 254 254 253 251 250 248 247 247 247 244 243 245 251 255 258 259 259 260 259 257 257 256 254 251 247 242
173 171 170 170 171 172 171 171 175 181 186 190 188 185 183 182 184 185 185 182 184 187 190 191 193 195 195 192 191 190 183 173 172 177 186 194 198 205 216 230 238 245 250 254 255 254 253 251 249 246 243 241 237 236 240 249 257 260 262 263 264 263 260 258 256 253 249 245 242
173 172 171 172 173 174 175 177 183 188 190 190 187 184 183 183 186 188 189 187 187 187 188 191 195 194 190 183 183 186 188 184 179 180 187 197 200 204 210 224 234 241 246 251 254 255 254 252 249 246 243 239 234 231 233 242 253 259 263 265 268 268 266 263 259 255 253 250 249
172 172 173 174 176 177 179 184 190 192 190 186 185 185 185 186 188 187 187 187 188 188 189 192 194 190 183 177 180 186 192 195 189 187 189 195 199 203 208 220 231 239 245 251 254 256 255 253 251 247 243 239 232 229 232 238 252 260 264 266 269 270 271 268 264 261 261 261 258
171 172 175 178 179 181 184 189 193 192 189 185 186 186 185 182 181 181 182 185 189 190 190 191 190 185 180 177 181 185 192 200 201 197 193 193 198 203 209 218 228 236 244 250 255 257 257 254 251 247 243 236 229 226 229 237 250 258 262 265 266 269 271 274 274 272 271 271 270